TimeCDT,TemperatureF,Dew PointF,Humidity,Sea Level PressureIn,VisibilityMPH,Wind Direction,Wind SpeedMPH,Gust SpeedMPH,PrecipitationIn,Events,Conditions,WindDirDegrees,DateUTC
12:58 AM,58.8,52.0,78,29.75,10.0,NW,9.2,-,N/A,,Overcast,310,2013-04-15 05:58:00
1:08 AM,59.0,51.8,77,29.75,10.0,NNW,9.2,-,N/A,,Light Drizzle,330,2013-04-15 06:08:00
1:17 AM,57.2,51.8,82,29.75,10.0,NNW,8.1,-,N/A,,Overcast,330,2013-04-15 06:17:00
1:37 AM,57.2,48.2,72,29.75,10.0,NNW,8.1,-,N/A,,Light Drizzle,330,2013-04-15 06:37:00
1:49 AM,57.2,48.2,72,29.75,10.0,NNW,5.8,-,N/A,,Scattered Clouds,330,2013-04-15 06:49:00
1:58 AM,56.5,47.8,73,29.76,10.0,NW,6.9,-,0.00,,Scattered Clouds,320,2013-04-15 06:58:00
2:09 AM,55.4,46.4,72,29.75,10.0,NNW,6.9,-,N/A,,Light Drizzle,340,2013-04-15 07:09:00
2:18 AM,55.4,44.6,67,29.75,10.0,NNW,8.1,-,N/A,,Mostly Cloudy,340,2013-04-15 07:18:00
2:39 AM,55.4,44.6,67,29.77,10.0,WNW,6.9,-,N/A,Rain,Light Rain,290,2013-04-15 07:39:00
2:58 AM,54.1,46.4,75,29.77,10.0,WNW,3.5,-,0.01,Rain,Light Rain,290,2013-04-15 07:58:00
3:03 AM,53.6,48.2,82,29.78,9.0,West,3.5,-,N/A,Rain,Light Rain,270,2013-04-15 08:03:00
3:58 AM,50.7,50.5,99,29.81,5.0,NNW,2.3,-,0.16,Rain,Rain,330,2013-04-15 08:58:00
4:08 AM,50.0,50.0,100,29.83,10.0,WSW,6.9,-,N/A,Rain,Light Rain,240,2013-04-15 09:08:00
4:23 AM,50.0,50.0,100,29.81,10.0,South,5.8,-,N/A,Rain,Light Rain,180,2013-04-15 09:23:00
4:28 AM,50.0,50.0,100,29.82,10.0,SSW,4.6,-,N/A,Rain,Light Rain,200,2013-04-15 09:28:00
4:58 AM,49.6,49.5,99,29.81,10.0,SE,4.6,-,0.03,Rain,Light Rain,130,2013-04-15 09:58:00
5:09 AM,48.2,48.2,100,29.83,10.0,NW,1.2,-,N/A,,Mostly Cloudy,320,2013-04-15 10:09:00
5:13 AM,50.0,50.0,100,29.82,10.0,Calm,Calm,-,N/A,,Light Drizzle,0,2013-04-15 10:13:00
5:27 AM,48.2,48.2,100,29.82,10.0,Calm,Calm,-,N/A,,Mostly Cloudy,0,2013-04-15 10:27:00
5:38 AM,50.0,50.0,100,29.85,10.0,WNW,4.6,-,N/A,Rain,Light Rain,290,2013-04-15 10:38:00
5:43 AM,50.0,50.0,100,29.86,8.0,SW,8.1,-,N/A,Rain,Light Rain,220,2013-04-15 10:43:00
5:58 AM,48.4,48.4,100,29.83,9.0,Calm,Calm,-,0.04,Rain,Light Rain,360,2013-04-15 10:58:00
6:03 AM,48.2,48.2,100,29.83,10.0,Calm,Calm,-,N/A,Rain,Light Rain,0,2013-04-15 11:03:00
6:07 AM,48.2,48.2,100,29.82,10.0,ESE,2.3,-,N/A,,Overcast,110,2013-04-15 11:07:00
6:37 AM,48.2,48.2,100,29.84,10.0,Calm,Calm,-,N/A,Rain,Light Rain,340,2013-04-15 11:37:00
6:58 AM,47.8,47.8,100,29.84,10.0,Calm,Calm,-,0.01,Rain,Light Rain,0,2013-04-15 11:58:00
7:03 AM,48.2,48.2,100,29.83,10.0,ESE,3.5,-,N/A,,Overcast,120,2013-04-15 12:03:00
7:58 AM,48.4,48.0,99,29.83,10.0,ESE,1.2,-,0.00,,Overcast,120,2013-04-15 12:58:00
8:58 AM,49.6,46.9,90,29.84,10.0,Calm,Calm,-,N/A,,Overcast,0,2013-04-15 13:58:00
9:58 AM,50.5,47.8,90,29.85,10.0,East,2.3,-,N/A,,Overcast,90,2013-04-15 14:58:00
10:24 AM,50.0,50.0,100,29.85,10.0,NNW,3.5,-,N/A,,Light Drizzle,330,2013-04-15 15:24:00
10:34 AM,50.0,50.0,100,29.85,10.0,NW,3.5,-,N/A,,Overcast,310,2013-04-15 15:34:00
10:58 AM,50.2,50.0,99,29.88,10.0,NNW,6.9,-,N/A,,Overcast,330,2013-04-15 15:58:00
11:05 AM,50.0,50.0,100,29.86,10.0,North,6.9,-,N/A,,Light Drizzle,350,2013-04-15 16:05:00
11:19 AM,50.0,50.0,100,29.86,10.0,NNW,8.1,-,N/A,,Overcast,340,2013-04-15 16:19:00
11:58 AM,50.9,49.3,94,29.87,10.0,NNW,4.6,-,0.00,,Overcast,340,2013-04-15 16:58:00
12:28 PM,51.8,48.2,88,29.86,10.0,North,5.8,-,N/A,,Overcast,10,2013-04-15 17:28:00
12:35 PM,51.8,46.4,82,29.85,10.0,North,6.9,-,N/A,,Light Drizzle,10,2013-04-15 17:35:00
12:45 PM,51.8,46.4,82,29.85,10.0,NNE,5.8,-,N/A,,Overcast,20,2013-04-15 17:45:00
12:56 PM,51.8,46.4,82,29.84,7.0,NNE,5.8,-,N/A,,Light Drizzle,20,2013-04-15 17:56:00
12:58 PM,51.8,46.2,81,29.86,8.0,NNE,6.9,-,0.00,,Light Drizzle,20,2013-04-15 17:58:00
1:06 PM,51.8,42.8,71,29.85,10.0,NNE,9.2,-,N/A,,Overcast,20,2013-04-15 18:06:00
1:20 PM,51.8,42.8,71,29.84,10.0,NNE,9.2,-,N/A,Rain,Light Rain Showers,30,2013-04-15 18:20:00
1:31 PM,51.8,42.8,71,29.84,10.0,North,8.1,-,N/A,,Overcast,10,2013-04-15 18:31:00
1:42 PM,51.8,44.6,76,29.84,10.0,North,10.4,-,N/A,Rain,Light Rain Showers,10,2013-04-15 18:42:00
1:58 PM,50.5,46.8,87,29.86,10.0,North,10.4,-,0.00,Rain,Light Rain Showers,350,2013-04-15 18:58:00
2:39 PM,51.8,46.4,82,29.84,10.0,NNE,12.7,-,N/A,,Overcast,20,2013-04-15 19:39:00
2:58 PM,51.8,45.7,80,29.85,10.0,North,10.4,-,0.00,,Overcast,10,2013-04-15 19:58:00
3:16 PM,51.8,46.4,82,29.85,10.0,North,11.5,-,N/A,,Overcast,360,2013-04-15 20:16:00
3:22 PM,51.8,42.8,71,29.84,10.0,NNE,10.4,-,N/A,Rain,Light Rain Showers,20,2013-04-15 20:22:00
3:56 PM,51.8,46.4,82,29.84,10.0,North,12.7,-,N/A,,Light Drizzle,10,2013-04-15 20:56:00
3:58 PM,51.6,45.7,80,29.85,10.0,North,12.7,-,0.00,,Light Drizzle,10,2013-04-15 20:58:00
4:44 PM,50.0,42.8,76,29.84,10.0,NNE,12.7,-,N/A,,Light Drizzle,20,2013-04-15 21:44:00
4:53 PM,50.0,42.8,76,29.85,10.0,North,15.0,-,N/A,,Overcast,10,2013-04-15 21:53:00
4:58 PM,50.2,42.8,76,29.86,10.0,North,15.0,-,0.00,,Overcast,10,2013-04-15 21:58:00
5:58 PM,50.2,44.4,81,29.86,10.0,NNE,10.4,-,0.00,,Overcast,20,2013-04-15 22:58:00
6:58 PM,49.6,43.5,79,29.87,10.0,North,12.7,-,N/A,,Overcast,10,2013-04-15 23:58:00
7:58 PM,48.9,41.2,75,29.88,10.0,NNE,11.5,-,N/A,,Overcast,20,2013-04-16 00:58:00
8:58 PM,48.6,41.0,75,29.92,10.0,North,12.7,-,N/A,,Overcast,360,2013-04-16 01:58:00
9:13 PM,48.2,41.0,76,29.93,10.0,North,12.7,-,N/A,Rain,Light Rain,360,2013-04-16 02:13:00
9:23 PM,48.2,42.8,82,29.94,10.0,North,16.1,-,N/A,,Overcast,350,2013-04-16 02:23:00
9:36 PM,48.2,42.8,82,29.93,10.0,North,12.7,-,N/A,,Light Drizzle,10,2013-04-16 02:36:00
9:58 PM,47.1,42.3,83,29.94,10.0,North,12.7,-,0.01,,Light Drizzle,10,2013-04-16 02:58:00
10:04 PM,46.4,42.8,87,29.93,10.0,North,13.8,-,N/A,Rain,Light Rain,10,2013-04-16 03:04:00
10:17 PM,46.4,42.8,87,29.94,6.0,NNW,10.4,-,N/A,Rain-Thunderstorm,Light Thunderstorms and Rain,330,2013-04-16 03:17:00
10:27 PM,46.4,44.6,93,29.95,10.0,North,16.1,-,N/A,Rain-Thunderstorm,Heavy Thunderstorms and Rain,10,2013-04-16 03:27:00
10:35 PM,44.6,44.6,100,29.94,10.0,NNE,13.8,-,N/A,Rain-Thunderstorm,Light Thunderstorms and Rain,20,2013-04-16 03:35:00
10:37 PM,44.6,44.6,100,29.96,10.0,NNW,15.0,-,N/A,Rain-Thunderstorm,Light Thunderstorms and Rain,340,2013-04-16 03:37:00
10:58 PM,43.9,43.7,99,29.99,10.0,North,13.8,20.7,0.25,Rain-Thunderstorm,Light Thunderstorms and Rain,10,2013-04-16 03:58:00
10:59 PM,44.6,44.6,100,29.97,10.0,NNE,15.0,20.7,N/A,Rain-Thunderstorm,Light Rain,20,2013-04-16 03:59:00
11:05 PM,44.6,44.6,100,29.97,10.0,NNE,12.7,-,N/A,,Mostly Cloudy,20,2013-04-16 04:05:00
11:58 PM,45.0,44.6,99,30.00,10.0,NE,11.5,-,0.00,,Overcast,40,2013-04-16 04:58:00